Regional Weather Roundup
Issued by NWS

Home | Current Version | Previous Version | Text Only | Print | Product List | Glossary On
Versions: 1 2 3 4 5 6 7 8 9 10 11 12 13 14 15 16 17 18 19 20 21 22 23 24 25 26 27 28 29 30 31 32 33 34 35 36 37 38 39 40 41 42 43 44 45 46 47 48 49 50
000
ASUS43 KTOP 302108
RWRKS

WEATHER ROUNDUP FOR KANSAS
NATIONAL WEATHER SERVICE GOODLAND KS
400 PM CDT SUN AUG 30 2015

NOTE:  "FAIR" INDICATES FEW OR NO CLOUDS BELOW 12,000 FEET WITH NO
SIGNIFICANT WEATHER AND/OR OBSTRUCTIONS TO VISIBILITY.

KSZ001>006-013>018-027>032-041>047-302200-
NORTHWEST KANSAS

CITY           SKY/WX    TMP DP  RH WIND       PRES   REMARKS
GOODLAND       SUNNY     91  39  16 S20       30.00F HAZE
HAYS           SUNNY     90  54  29 SE14      29.97F
HILL CITY      SUNNY     95  48  20 S14G23    29.96F
RUSSELL        SUNNY     87  58  37 SE10      29.97F
$$

KSZ061>065-074>080-084>089-302200-
SOUTHWEST KANSAS

CITY           SKY/WX    TMP DP  RH WIND       PRES   REMARKS
DODGE CITY     SUNNY     89  50  26 S9G16     30.00F
ELKHART          N/A     90  52  27 S8          N/A
GARDEN CITY    SUNNY     90  43  19 SE15      30.00F
GREAT BEND     SUNNY     84  57  39 S8        29.98F
LIBERAL        SUNNY     91  41  17 S13       30.02F
PRATT          SUNNY     82  54  36 CALM      30.01F
$$

KSZ066>073-081>083-090>101-302200-
SOUTHEAST KANSAS

CITY           SKY/WX    TMP DP  RH WIND       PRES   REMARKS
CHANUTE        CLOUDY    82  69  64 SE3       29.99S
COFFEYVILLE    PTSUNNY   85  72  65 N3        29.96F
HUTCHINSON     SUNNY     82  64  54 S9        29.99F
MEDICINE LODGE   N/A     85  62  46 VRB6      29.97F
NEWTON         MOSUNNY   81  63  54 SE7       30.03S
PARSONS        PTSUNNY   85  71  63 CALM      29.99F
WICHITA INTL   MOSUNNY   82  64  54 SE6       29.98F
WICHITA JABRA  MOSUNNY   81  66  60 SE7       29.99F
WICHITA MCCONL MOSUNNY   83  53  35 SE8       29.99F
$$

KSZ007>012-019>026-033>040-048>060-102>105-302200-
NORTHEAST KANSAS

CITY           SKY/WX    TMP DP  RH WIND       PRES   REMARKS
CONCORDIA      SUNNY     78  66  66 SE10      30.00F
EMPORIA        PTSUNNY   81  68  64 E7        29.99F
LAWRENCE       MOSUNNY   84  68  58 VRB6      29.99F
MANHATTAN      PTSUNNY   80  68  66 VRB3      29.99F
MARYSVILLE     PTSUNNY  N/A N/A N/A SE6       30.00F
OLATHE IND     MOSUNNY   82  68  62 SE9       30.00F
OLATHE EXE     SUNNY     81  70  69 SE8       29.99F
SALINA         SUNNY     82  65  56 E9        29.99F
TOPEKA BILLARD SUNNY     83  68  60 CALM      29.99F
TOPEKA FORBES  MOSUNNY   84  68  58 CALM      30.00F
$$


USA.gov is the U.S. government's official web portal to all federal, state and local government web resources and services.